Location: Olda
(45.8833°N, 9.5500°E)
Time: 14:53:56
(UTC+00:00)

Cosmos 2237 - Pass Details

Date: 03 March 2021
Orbit: 845 x 857 km, 70.8° (Epoch: 15 April)

Event Time Altitude Azimuth Distance (km) Brightness Sun altitude
Rises 18:06:13 0° 192° (SSW) 3,406 7.5 -10.3°
Reaches altitude 10° 18:08:40 10° 189° (S) 2,476 6.7 -10.8°
Maximum altitude 18:14:16 60° 111° (ESE) 977 4.2 -11.7°
Drops below altitude 10° 18:19:54 10° 33° (NNE) 2,498 6.4 -12.7°
Sets 18:22:23 0° 30° (NNE) 3,439 7.1 -13.2°
